Wetterdaten: Woche 31.12.18 - 06.01.19 (KW1)
Datum Zeit Temperatur Luftfeuchte Luftdruck Niederschlag Windrichtung Sonnenschein Solar Wind
31.12.2018 00:00 2,3 C 96 % 1033,7 hPa 0,2 l/m W 0,00 h 0 W/m 9,4 km/h (2 Bft)
31.12.2018 01:00 2,2 C 96 % 1033,7 hPa 0,0 l/m W-SW 0,00 h 0 W/m 5,5 km/h (1 Bft)
31.12.2018 02:00 1,9 C 97 % 1034,0 hPa 0,6 l/m W-SW 0,00 h 0 W/m 2,9 km/h (1 Bft)
31.12.2018 03:00 1,9 C 97 % 1033,8 hPa 0,2 l/m W-SW 0,00 h 0 W/m 2,9 km/h (1 Bft)
31.12.2018 04:00 2,1 C 98 % 1033,3 hPa 0,6 l/m W-SW 0,00 h 0 W/m 5,1 km/h (1 Bft)
31.12.2018 05:00 2,2 C 98 % 1033,1 hPa 0,4 l/m SW 0,00 h 0 W/m 6,0 km/h (2 Bft)
31.12.2018 06:00 2,3 C 98 % 1032,8 hPa 0,6 l/m SW 0,00 h 0 W/m 15,4 km/h (3 Bft)
31.12.2018 07:00 2,4 C 98 % 1033,1 hPa 0,2 l/m SW 0,00 h 0 W/m 3,4 km/h (1 Bft)
31.12.2018 08:00 2,5 C 99 % 1033,6 hPa 0,2 l/m SW 0,00 h 7 W/m 7,8 km/h (2 Bft)
31.12.2018 09:00 2,7 C 99 % 1033,8 hPa 0,2 l/m SW 0,00 h 18 W/m 6,8 km/h (2 Bft)
31.12.2018 10:00 3,0 C 99 % 1034,2 hPa 0,0 l/m SW 0,00 h 28 W/m 5,3 km/h (1 Bft)
31.12.2018 11:00 3,3 C 99 % 1033,8 hPa 0,0 l/m SW 0,00 h 47 W/m 5,8 km/h (1 Bft)
31.12.2018 12:00 3,8 C 99 % 1033,3 hPa 0,2 l/m SW 0,00 h 49 W/m 7,4 km/h (2 Bft)
31.12.2018 13:00 4,2 C 99 % 1032,7 hPa 0,0 l/m SW 0,00 h 72 W/m 2,9 km/h (1 Bft)
31.12.2018 14:00 4,4 C 99 % 1032,4 hPa 0,0 l/m SW 0,08 h 89 W/m 9,1 km/h (2 Bft)
31.12.2018 15:00 4,4 C 99 % 1032,5 hPa 0,0 l/m SW 0,00 h 35 W/m 5,9 km/h (2 Bft)
31.12.2018 16:00 4,2 C 99 % 1032,9 hPa 0,0 l/m SW 0,00 h 8 W/m 3,6 km/h (1 Bft)
31.12.2018 17:00 4,0 C 99 % 1033,3 hPa 0,2 l/m SW 0,00 h 0 W/m 1,2 km/h (1 Bft)
31.12.2018 18:00 3,9 C 99 % 1033,4 hPa 0,4 l/m SW 0,00 h 0 W/m 2,8 km/h (1 Bft)
31.12.2018 19:00 3,8 C 99 % 1033,4 hPa 0,0 l/m SW 0,00 h 0 W/m 3,7 km/h (1 Bft)
31.12.2018 20:00 3,7 C 100 % 1033,7 hPa 0,0 l/m N 0,00 h 0 W/m 0,0 km/h (0 Bft)
31.12.2018 21:00 3,5 C 99 % 1033,4 hPa 0,0 l/m N 0,00 h 0 W/m 0,0 km/h (0 Bft)
31.12.2018 22:00 3,3 C 100 % 1033,1 hPa 0,0 l/m N 0,00 h 0 W/m 0,0 km/h (0 Bft)
31.12.2018 23:00 3,2 C 99 % 1032,8 hPa 0,0 l/m N 0,00 h 0 W/m 1,7 km/h (1 Bft)
01.01.2019 00:00 3,1 C 100 % 1032,6 hPa 0,0 l/m SW 0,00 h 0 W/m 3,3 km/h (1 Bft)
01.01.2019 01:00 3,1 C 100 % 1032,7 hPa 0,0 l/m SW 0,00 h 0 W/m 0,5 km/h (0 Bft)
01.01.2019 02:00 3,2 C 100 % 1032,8 hPa 0,0 l/m SW 0,00 h 0 W/m 3,9 km/h (1 Bft)
01.01.2019 03:00 3,2 C 100 % 1032,2 hPa 0,0 l/m SW 0,00 h 0 W/m 5,6 km/h (1 Bft)
01.01.2019 04:00 3,1 C 100 % 1031,3 hPa 0,0 l/m S-SW 0,00 h 0 W/m 11,6 km/h (2 Bft)
01.01.2019 05:00 2,9 C 100 % 1030,7 hPa 0,0 l/m S-SW 0,00 h 0 W/m 4,0 km/h (1 Bft)
01.01.2019 06:00 2,9 C 100 % 1030,5 hPa 0,0 l/m S-SW 0,00 h 0 W/m 1,2 km/h (1 Bft)
01.01.2019 07:00 2,8 C 100 % 1030,3 hPa 0,0 l/m SW 0,00 h 0 W/m 9,8 km/h (2 Bft)
01.01.2019 08:00 2,6 C 100 % 1030,1 hPa 0,0 l/m SW 0,08 h 12 W/m 5,2 km/h (1 Bft)
01.01.2019 09:00 2,8 C 100 % 1030,2 hPa 0,0 l/m SW 0,00 h 32 W/m 5,0 km/h (1 Bft)
01.01.2019 10:00 3,2 C 100 % 1030,1 hPa 0,0 l/m SW 0,00 h 66 W/m 11,6 km/h (2 Bft)
01.01.2019 11:00 4,0 C 99 % 1029,5 hPa 0,0 l/m W-SW 0,25 h 149 W/m 15,2 km/h (3 Bft)
01.01.2019 12:00 4,5 C 97 % 1028,9 hPa 0,0 l/m SW 0,00 h 116 W/m 14,0 km/h (3 Bft)
01.01.2019 13:00 4,3 C 94 % 1028,4 hPa 0,0 l/m SW 0,00 h 55 W/m 18,1 km/h (3 Bft)
01.01.2019 14:00 4,0 C 95 % 1028,6 hPa 0,0 l/m SW 0,00 h 23 W/m 12,4 km/h (3 Bft)
01.01.2019 15:00 3,7 C 95 % 1028,3 hPa 0,0 l/m W-SW 0,00 h 12 W/m 14,2 km/h (3 Bft)
01.01.2019 16:00 3,7 C 96 % 1028,0 hPa 0,0 l/m W 0,00 h 5 W/m 13,7 km/h (3 Bft)
01.01.2019 17:00 3,6 C 96 % 1027,8 hPa 0,0 l/m W-SW 0,00 h 0 W/m 19,4 km/h (3 Bft)
01.01.2019 18:00 3,4 C 96 % 1027,8 hPa 0,4 l/m W-SW 0,00 h 0 W/m 24,8 km/h (4 Bft)
01.01.2019 19:00 3,3 C 96 % 1027,9 hPa 0,0 l/m W-SW 0,00 h 0 W/m 20,4 km/h (4 Bft)
01.01.2019 20:00 3,2 C 96 % 1027,6 hPa 0,0 l/m W-SW 0,00 h 0 W/m 26,0 km/h (4 Bft)
01.01.2019 21:00 3,3 C 96 % 1027,5 hPa 0,2 l/m W 0,00 h 0 W/m 24,1 km/h (4 Bft)
01.01.2019 22:00 3,2 C 96 % 1027,1 hPa 0,2 l/m W-SW 0,00 h 0 W/m 23,7 km/h (4 Bft)
01.01.2019 23:00 3,0 C 96 % 1026,9 hPa 0,2 l/m W-SW 0,00 h 0 W/m 21,6 km/h (4 Bft)
02.01.2019 00:00 2,9 C 96 % 1027,1 hPa 0,2 l/m W-SW 0,00 h 0 W/m 18,8 km/h (3 Bft)
02.01.2019 01:00 2,5 C 96 % 1027,2 hPa 0,6 l/m W 0,00 h 0 W/m 18,8 km/h (3 Bft)
02.01.2019 02:00 1,8 C 96 % 1027,6 hPa 0,4 l/m W 0,00 h 0 W/m 17,2 km/h (3 Bft)
02.01.2019 03:00 1,0 C 96 % 1028,3 hPa 0,0 l/m N-NW 0,00 h 0 W/m 17,2 km/h (3 Bft)
02.01.2019 04:00 0,2 C 95 % 1028,6 hPa 0,0 l/m N-NW 0,00 h 0 W/m 15,8 km/h (3 Bft)
02.01.2019 05:00 0,1 C 94 % 1029,0 hPa 0,4 l/m N-NW 0,00 h 0 W/m 5,2 km/h (1 Bft)
02.01.2019 06:00 0,0 C 93 % 1029,6 hPa 0,0 l/m W-NW 0,00 h 0 W/m 6,0 km/h (2 Bft)
02.01.2019 07:00 -0,0 C 90 % 1029,7 hPa 0,0 l/m NW 0,00 h 0 W/m 11,2 km/h (2 Bft)
02.01.2019 08:00 0,2 C 88 % 1029,9 hPa 0,0 l/m W-NW 0,00 h 10 W/m 13,3 km/h (3 Bft)
02.01.2019 09:00 0,3 C 89 % 1030,3 hPa 0,0 l/m W-NW 0,00 h 39 W/m 12,8 km/h (3 Bft)
02.01.2019 10:00 0,4 C 90 % 1030,7 hPa 0,0 l/m W-NW 0,00 h 59 W/m 13,7 km/h (3 Bft)
02.01.2019 11:00 0,6 C 90 % 1030,5 hPa 0,0 l/m W-NW 0,00 h 111 W/m 14,5 km/h (3 Bft)
02.01.2019 12:00 0,8 C 89 % 1029,8 hPa 0,0 l/m W-NW 0,00 h 80 W/m 16,0 km/h (3 Bft)
02.01.2019 13:00 1,0 C 88 % 1029,5 hPa 0,0 l/m W-NW 0,00 h 71 W/m 14,2 km/h (3 Bft)
02.01.2019 14:00 1,4 C 85 % 1029,5 hPa 0,0 l/m N-NW 0,08 h 92 W/m 19,4 km/h (3 Bft)
02.01.2019 15:00 1,3 C 83 % 1030,0 hPa 0,0 l/m NW 0,00 h 35 W/m 13,8 km/h (3 Bft)
02.01.2019 16:00 0,6 C 89 % 1030,8 hPa 0,4 l/m N 0,00 h 6 W/m 12,8 km/h (3 Bft)
02.01.2019 17:00 -0,1 C 91 % 1031,5 hPa 0,2 l/m N-NW 0,00 h 0 W/m 12,4 km/h (3 Bft)
02.01.2019 18:00 -0,1 C 88 % 1032,2 hPa 0,0 l/m N 0,00 h 0 W/m 12,9 km/h (3 Bft)
02.01.2019 19:00 -0,5 C 87 % 1033,0 hPa 0,0 l/m N 0,00 h 0 W/m 8,2 km/h (2 Bft)
02.01.2019 20:00 -0,6 C 87 % 1033,6 hPa 0,0 l/m N-NW 0,00 h 0 W/m 4,3 km/h (1 Bft)
02.01.2019 21:00 -0,7 C 85 % 1034,1 hPa 0,0 l/m N 0,00 h 0 W/m 12,6 km/h (3 Bft)
02.01.2019 22:00 -0,9 C 82 % 1034,3 hPa 0,0 l/m N 0,00 h 0 W/m 6,8 km/h (2 Bft)
02.01.2019 23:00 -1,2 C 82 % 1034,4 hPa 0,0 l/m N 0,00 h 0 W/m 3,4 km/h (1 Bft)
03.01.2019 00:00 -1,7 C 84 % 1034,7 hPa 0,0 l/m NW 0,00 h 0 W/m 6,4 km/h (2 Bft)
03.01.2019 01:00 -2,0 C 84 % 1035,3 hPa 0,0 l/m NW 0,00 h 0 W/m 6,4 km/h (2 Bft)
03.01.2019 02:00 -2,7 C 84 % 1036,1 hPa 0,0 l/m N 0,00 h 0 W/m 0,9 km/h (0 Bft)
03.01.2019 03:00 -3,2 C 85 % 1036,1 hPa 0,0 l/m N 0,00 h 0 W/m 0,0 km/h (0 Bft)
03.01.2019 04:00 -3,8 C 86 % 1036,0 hPa 0,0 l/m N 0,00 h 0 W/m 0,4 km/h (0 Bft)
03.01.2019 05:00 -4,4 C 87 % 1036,1 hPa 0,0 l/m N 0,00 h 0 W/m 0,0 km/h (0 Bft)
03.01.2019 06:00 -5,3 C 88 % 1036,2 hPa 0,0 l/m N 0,00 h 0 W/m 0,0 km/h (0 Bft)
03.01.2019 07:00 -6,1 C 89 % 1036,7 hPa 0,0 l/m N 0,00 h 0 W/m 0,0 km/h (0 Bft)
03.01.2019 08:00 -6,7 C 90 % 1037,5 hPa 0,0 l/m N 0,00 h 14 W/m 0,0 km/h (0 Bft)
03.01.2019 09:00 -6,5 C 92 % 1037,6 hPa 0,0 l/m N 0,00 h 42 W/m 0,0 km/h (0 Bft)
03.01.2019 10:00 -5,3 C 94 % 1037,6 hPa 0,0 l/m N 0,00 h 64 W/m 0,0 km/h (0 Bft)
03.01.2019 11:00 -4,1 C 94 % 1037,5 hPa 0,0 l/m N 0,00 h 99 W/m 0,0 km/h (0 Bft)
03.01.2019 12:00 -2,8 C 94 % 1037,0 hPa 0,0 l/m N 0,00 h 120 W/m 0,0 km/h (0 Bft)
03.01.2019 13:00 -1,6 C 89 % 1036,2 hPa 0,0 l/m W-NW 0,25 h 158 W/m 7,9 km/h (2 Bft)
03.01.2019 14:00 -1,2 C 81 % 1036,0 hPa 0,0 l/m W 0,42 h 146 W/m 6,3 km/h (2 Bft)
03.01.2019 15:00 -1,2 C 80 % 1035,8 hPa 0,0 l/m W-SW 0,00 h 50 W/m 12,1 km/h (2 Bft)
03.01.2019 16:00 -1,4 C 82 % 1035,9 hPa 0,0 l/m W-SW 0,08 h 13 W/m 8,3 km/h (2 Bft)
03.01.2019 17:00 -1,6 C 81 % 1036,2 hPa 0,0 l/m SW 0,00 h 0 W/m 9,5 km/h (2 Bft)
03.01.2019 18:00 -1,8 C 82 % 1035,9 hPa 0,0 l/m SW 0,00 h 0 W/m 5,6 km/h (1 Bft)
03.01.2019 19:00 -1,9 C 85 % 1036,1 hPa 0,0 l/m SW 0,00 h 0 W/m 1,1 km/h (0 Bft)
03.01.2019 20:00 -2,1 C 88 % 1036,3 hPa 0,2 l/m N 0,00 h 0 W/m 0,0 km/h (0 Bft)
03.01.2019 21:00 -2,4 C 90 % 1036,2 hPa 0,0 l/m N 0,00 h 0 W/m 0,8 km/h (0 Bft)
03.01.2019 22:00 -2,8 C 91 % 1036,2 hPa 0,0 l/m N 0,00 h 0 W/m 0,4 km/h (0 Bft)
03.01.2019 23:00 -3,3 C 92 % 1036,3 hPa 0,0 l/m N 0,00 h 0 W/m 0,0 km/h (0 Bft)
04.01.2019 00:00 -3,7 C 92 % 1036,7 hPa 0,0 l/m N 0,00 h 0 W/m 0,0 km/h (0 Bft)
04.01.2019 01:00 -3,8 C 93 % 1036,9 hPa 0,0 l/m N 0,00 h 0 W/m 0,0 km/h (0 Bft)
04.01.2019 02:00 -3,7 C 93 % 1036,9 hPa 0,0 l/m N 0,00 h 0 W/m 0,0 km/h (0 Bft)
04.01.2019 03:00 -3,6 C 94 % 1036,6 hPa 0,0 l/m SW 0,00 h 0 W/m 2,3 km/h (1 Bft)
04.01.2019 04:00 -3,8 C 94 % 1036,3 hPa 0,0 l/m N 0,00 h 0 W/m 0,0 km/h (0 Bft)
04.01.2019 05:00 -3,4 C 95 % 1036,3 hPa 0,0 l/m N 0,00 h 0 W/m 0,0 km/h (0 Bft)
04.01.2019 06:00 -3,1 C 95 % 1036,7 hPa 0,0 l/m N 0,00 h 0 W/m 0,0 km/h (0 Bft)
04.01.2019 07:00 -2,9 C 95 % 1036,5 hPa 0,0 l/m N 0,00 h 0 W/m 0,0 km/h (0 Bft)
04.01.2019 08:00 -2,8 C 96 % 1036,9 hPa 0,0 l/m N 0,00 h 14 W/m 0,0 km/h (0 Bft)
04.01.2019 09:00 -2,3 C 96 % 1037,4 hPa 0,0 l/m SW 0,00 h 48 W/m 2,3 km/h (1 Bft)
04.01.2019 10:00 -1,7 C 96 % 1037,5 hPa 0,0 l/m SW 0,00 h 93 W/m 4,8 km/h (1 Bft)
04.01.2019 11:00 -1,1 C 96 % 1036,8 hPa 0,0 l/m SW 0,00 h 145 W/m 8,3 km/h (2 Bft)
04.01.2019 12:00 -0,5 C 95 % 1035,9 hPa 0,0 l/m SW 0,75 h 207 W/m 6,1 km/h (2 Bft)
04.01.2019 13:00 -0,2 C 93 % 1035,2 hPa 0,0 l/m S-SW 0,42 h 161 W/m 9,3 km/h (2 Bft)
04.01.2019 14:00 -0,3 C 93 % 1034,9 hPa 0,0 l/m S-SW 0,17 h 128 W/m 9,7 km/h (2 Bft)
04.01.2019 15:00 -0,3 C 92 % 1034,6 hPa 0,0 l/m S-SW 0,00 h 61 W/m 7,4 km/h (2 Bft)
04.01.2019 16:00 -0,5 C 92 % 1034,1 hPa 0,0 l/m S-SW 0,00 h 15 W/m 4,8 km/h (1 Bft)
04.01.2019 17:00 -0,7 C 88 % 1033,7 hPa 0,0 l/m SW 0,00 h 0 W/m 11,3 km/h (2 Bft)
04.01.2019 18:00 -0,7 C 87 % 1034,0 hPa 0,0 l/m SW 0,00 h 0 W/m 6,0 km/h (2 Bft)
04.01.2019 19:00 -0,8 C 87 % 1034,3 hPa 0,0 l/m SW 0,00 h 0 W/m 3,3 km/h (1 Bft)
04.01.2019 20:00 -0,7 C 88 % 1034,0 hPa 0,0 l/m W 0,00 h 0 W/m 13,4 km/h (3 Bft)
04.01.2019 21:00 -0,5 C 86 % 1034,0 hPa 0,0 l/m W 0,00 h 0 W/m 15,7 km/h (3 Bft)
04.01.2019 22:00 -0,4 C 86 % 1034,0 hPa 0,0 l/m W 0,00 h 0 W/m 16,0 km/h (3 Bft)
04.01.2019 23:00 -0,3 C 87 % 1034,0 hPa 0,0 l/m W 0,00 h 0 W/m 15,0 km/h (3 Bft)
05.01.2019 00:00 -0,3 C 88 % 1033,8 hPa 0,0 l/m W 0,00 h 0 W/m 12,1 km/h (2 Bft)
05.01.2019 01:00 -0,4 C 89 % 1033,1 hPa 0,0 l/m W 0,00 h 0 W/m 11,4 km/h (2 Bft)
05.01.2019 02:00 -0,4 C 89 % 1032,7 hPa 0,0 l/m W 0,00 h 0 W/m 11,6 km/h (2 Bft)
05.01.2019 03:00 -0,4 C 88 % 1032,3 hPa 0,0 l/m W-SW 0,00 h 0 W/m 13,6 km/h (3 Bft)
05.01.2019 04:00 -0,4 C 89 % 1032,0 hPa 0,0 l/m SW 0,00 h 0 W/m 11,0 km/h (2 Bft)
05.01.2019 05:00 -0,3 C 89 % 1031,0 hPa 0,0 l/m W-SW 0,00 h 0 W/m 13,8 km/h (3 Bft)
05.01.2019 06:00 -0,3 C 90 % 1030,3 hPa 0,0 l/m W-SW 0,00 h 0 W/m 11,8 km/h (2 Bft)
05.01.2019 07:00 -0,4 C 93 % 1030,2 hPa 0,4 l/m W-SW 0,00 h 0 W/m 12,1 km/h (2 Bft)
05.01.2019 08:00 -0,6 C 95 % 1030,1 hPa 0,4 l/m SW 0,00 h 8 W/m 19,3 km/h (3 Bft)
05.01.2019 09:00 -0,7 C 96 % 1030,2 hPa 0,8 l/m SW 0,00 h 17 W/m 20,2 km/h (4 Bft)
05.01.2019 10:00 -0,6 C 97 % 1030,1 hPa 0,8 l/m SW 0,00 h 34 W/m 21,0 km/h (4 Bft)
05.01.2019 11:00 -0,6 C 98 % 1029,6 hPa 0,8 l/m W-SW 0,00 h 54 W/m 25,3 km/h (4 Bft)
05.01.2019 12:00 -0,6 C 98 % 1029,1 hPa 0,6 l/m W-SW 0,00 h 51 W/m 26,5 km/h (4 Bft)
05.01.2019 13:00 -0,5 C 98 % 1028,5 hPa 1,0 l/m SW 0,00 h 52 W/m 20,6 km/h (4 Bft)
05.01.2019 14:00 -0,3 C 98 % 1028,5 hPa 1,2 l/m SW 0,00 h 41 W/m 18,6 km/h (3 Bft)
05.01.2019 15:00 -0,2 C 98 % 1028,6 hPa 0,4 l/m SW 0,00 h 28 W/m 15,6 km/h (3 Bft)
05.01.2019 16:00 -0,1 C 98 % 1028,8 hPa 0,8 l/m SW 0,00 h 6 W/m 17,7 km/h (3 Bft)
05.01.2019 17:00 -0,0 C 98 % 1029,0 hPa 0,4 l/m W-SW 0,00 h 0 W/m 14,6 km/h (3 Bft)
05.01.2019 18:00 0,1 C 98 % 1029,3 hPa 0,6 l/m SW 0,00 h 0 W/m 12,5 km/h (3 Bft)
05.01.2019 19:00 0,3 C 98 % 1029,4 hPa 0,2 l/m SW 0,00 h 0 W/m 15,3 km/h (3 Bft)
05.01.2019 20:00 0,4 C 98 % 1029,5 hPa 0,0 l/m SW 0,00 h 0 W/m 13,2 km/h (3 Bft)
05.01.2019 21:00 0,5 C 98 % 1029,5 hPa 0,2 l/m W-SW 0,00 h 0 W/m 13,2 km/h (3 Bft)
05.01.2019 22:00 0,6 C 98 % 1029,4 hPa 0,2 l/m W 0,00 h 0 W/m 13,4 km/h (3 Bft)
05.01.2019 23:00 0,7 C 99 % 1029,1 hPa 0,2 l/m W-SW 0,00 h 0 W/m 14,8 km/h (3 Bft)
06.01.2019 00:00 0,7 C 99 % 1028,9 hPa 0,2 l/m W-SW 0,00 h 0 W/m 13,8 km/h (3 Bft)
06.01.2019 01:00 0,8 C 99 % 1028,8 hPa 0,0 l/m W-SW 0,00 h 0 W/m 11,9 km/h (2 Bft)
06.01.2019 02:00 0,8 C 99 % 1028,8 hPa 0,0 l/m W-SW 0,00 h 0 W/m 13,8 km/h (3 Bft)
06.01.2019 03:00 0,9 C 99 % 1029,0 hPa 0,0 l/m W-SW 0,00 h 0 W/m 7,2 km/h (2 Bft)
06.01.2019 04:00 0,9 C 99 % 1028,6 hPa 0,0 l/m W 0,00 h 0 W/m 11,7 km/h (2 Bft)
06.01.2019 05:00 1,0 C 99 % 1028,4 hPa 0,0 l/m W 0,00 h 0 W/m 6,2 km/h (2 Bft)
06.01.2019 06:00 0,9 C 99 % 1028,6 hPa 0,2 l/m W-NW 0,00 h 0 W/m 4,3 km/h (1 Bft)
06.01.2019 07:00 0,7 C 99 % 1028,8 hPa 0,4 l/m N 0,00 h 0 W/m 1,1 km/h (0 Bft)
06.01.2019 08:00 0,5 C 99 % 1029,2 hPa 0,2 l/m W 0,00 h 12 W/m 0,8 km/h (0 Bft)
06.01.2019 09:00 0,6 C 99 % 1029,6 hPa 0,0 l/m W 0,00 h 30 W/m 3,2 km/h (1 Bft)
06.01.2019 10:00 0,8 C 99 % 1030,0 hPa 0,0 l/m W 0,00 h 64 W/m 2,3 km/h (1 Bft)
06.01.2019 11:00 1,0 C 99 % 1030,2 hPa 0,4 l/m W 0,00 h 93 W/m 3,6 km/h (1 Bft)
06.01.2019 12:00 1,0 C 99 % 1030,1 hPa 0,2 l/m W 0,00 h 106 W/m 4,1 km/h (1 Bft)
06.01.2019 13:00 1,0 C 99 % 1030,3 hPa 0,2 l/m W-SW 0,00 h 114 W/m 8,3 km/h (2 Bft)
06.01.2019 14:00 0,8 C 99 % 1030,7 hPa 0,2 l/m W-SW 0,00 h 93 W/m 4,3 km/h (1 Bft)
06.01.2019 15:00 0,7 C 99 % 1031,2 hPa 0,4 l/m W-SW 0,00 h 42 W/m 2,8 km/h (1 Bft)
06.01.2019 16:00 0,5 C 99 % 1031,4 hPa 0,2 l/m W-SW 0,08 h 12 W/m 1,3 km/h (1 Bft)
06.01.2019 17:00 0,4 C 99 % 1031,7 hPa 0,2 l/m N 0,00 h 0 W/m 0,7 km/h (0 Bft)
06.01.2019 18:00 0,4 C 99 % 1031,8 hPa 0,2 l/m W-SW 0,00 h 0 W/m 0,0 km/h (0 Bft)
06.01.2019 19:00 0,5 C 99 % 1031,8 hPa 0,0 l/m W-SW 0,00 h 0 W/m 1,7 km/h (1 Bft)
06.01.2019 20:00 0,5 C 99 % 1032,1 hPa 0,0 l/m N 0,00 h 0 W/m 0,0 km/h (0 Bft)
06.01.2019 21:00 0,3 C 99 % 1032,2 hPa 0,2 l/m W-SW 0,00 h 0 W/m 1,1 km/h (0 Bft)
06.01.2019 22:00 0,4 C 99 % 1032,2 hPa 0,4 l/m N 0,00 h 0 W/m 0,4 km/h (0 Bft)
06.01.2019 23:00 0,4 C 99 % 1032,2 hPa 0,2 l/m W-SW 0,00 h 0 W/m 1,3 km/h (1 Bft)
Min-Datum _ 03.01.19 03.01.19 01.01.19 - - - - 31.12.18
_ Min-Zeit 08:30 14:10 23:10 - - - - 01:35
Minimum _ -6,8 C 80 % 1026,7 hPa - - - - 0,0 km/h (0 Bft)
Max-Datum _ 01.01.19 31.12.18 03.01.19 05.01.19 - 31.12.18 03.01.19 01.01.19
_ Max-Zeit 12:40 20:20 08:30 14:10 - 14:40 14:35 20:45
Maximum _ 4,7 C 100 % 1037,8 hPa 1,2 l/m - 0,08 h 311 W/m 37,0 km/h
W-SW (5 Bft)
Durchschnitt _ 0,4 C 94 % 1032,2 hPa #20,2 l/m SW #2:40 h 60 W/m 8,4 km/h (2 Bft)